Location: Vancouver
(49.2500°N, 123.1330°W)
Time: 00:47:33
(UTC-07:00)

BREEZE-M DEB (TANK) - Visible Passes

Search period start: 27 July 2016 00:00
Search period end: 06 August 2016 00:00
Orbit: 278 x 13333 km, 49.6° (Epoch: 26 July)

Date Brightness Start Highest point End Pass type
(mag) Time Alt. Az. Time Alt. Az. Time Alt. Az.
27 Jul 3.9 00:31:05 10° W 00:47:44 87° N 00:51:58 10° E visible
27 Jul 5.8 20:47:59 10° SW 21:33:24 67° SSE 21:42:07 10° ENE visible
28 Jul 2.9 01:46:50 10° WNW 01:57:09 75° SSW 01:58:52 32° ESE visible
28 Jul 5.1 22:10:30 10° WSW 22:44:06 82° SSE 22:50:46 10° ENE visible
29 Jul 3.5 03:00:03 10° WNW 03:05:04 30° WSW 03:05:04 30° WSW visible
29 Jul 4.4 23:32:05 10° W 23:54:13 88° N 23:59:17 10° E visible
31 Jul 3.5 00:49:59 10° W 01:03:53 86° SSW 01:06:28 25° ESE visible
31 Jul 5.5 21:07:50 10° SW 21:50:00 77° SSE 21:57:53 10° ENE visible
01 Aug 3.0 02:04:28 10° WNW 02:12:42 51° SW 02:12:42 51° SW visible
01 Aug 4.8 22:31:17 10° WSW 23:00:24 89° S 23:06:25 10° E visible
02 Aug 4.9 03:17:27 10° W 03:18:57 14° W 03:18:57 14° W visible
02 Aug 4.0 23:51:43 10° W 00:10:19 89° N 00:14:10 17° E visible
04 Aug 3.0 01:08:03 10° WNW 01:19:39 70° SSW 01:20:24 59° SSE visible
04 Aug 5.3 21:28:38 10° WSW 22:06:16 85° SSE 22:13:25 10° ENE visible
05 Aug 4.3 02:21:40 10° WNW 02:26:39 26° W 02:26:39 26° W visible
05 Aug 4.6 22:51:42 10° W 23:16:28 88° N 23:21:52 10° E visible
